Location: Woodhurst
(52.3667°N, 0.0667°W)
Time: 16:05:19
(UTC+00:00)

CZ-2C R/B - Pass Details

Date: 19 May 2025
Orbit: 631 x 693 km, 98.1° (Epoch: 12 June)

Event Time Altitude Azimuth Distance (km) Brightness Sun altitude
Rises 23:12:53 0° 13° (NNE) 2,942 8.3 -17.0°
Reaches altitude 10° 23:15:06 10° 11° (NNE) 2,027 7.3 -17.1°
Maximum altitude 23:19:29 73° 288° (WNW) 666 3.7 -17.2°
Enters shadow 23:21:50 27° 208° (SSW) 1,220 4.6 -17.2°
